Simultaneous Nadir Overpasses (SNOs) Predictions

Prediction of SNOs between NOAA-20 and PACE Satellite Orbit:

Table of predicted SNOs for the next 14.0 days since TLE Epoch: 4/7/2025
Index Date (NOAA-20) Time (NOAA-20) Lat,Lon (NOAA-20) SZA (NOAA-20 ) Date (PACE) Time (PACE) Lat,Lon (PACE) SZA (PACE ) Distance(km) Time Diff (sec)
1 04/09/2025 00:06:55 -79.77, -38.70 105.71 04/09/2025 00:07:39 -79.76, -38.65 105.74 1.04 44
2 04/09/2025 00:57:31 79.46, 131.25 73.75 04/09/2025 00:56:43 79.47, 131.12 73.79 2.87 48
3 04/11/2025 05:24:07 79.68, 62.80 73.30 04/11/2025 05:24:06 79.67, 62.91 73.28 2.25 1
4 04/13/2025 09:50:40 79.79, -4.90 72.71 04/13/2025 09:51:26 79.78, -4.75 72.66 3.10 46
5 04/13/2025 10:41:15 -79.49, 165.11 107.85 04/13/2025 10:40:28 -79.50, 164.98 107.81 2.93 47
6 04/15/2025 15:07:49 -79.64, 97.16 108.37 04/15/2025 15:07:48 -79.65, 97.15 108.37 0.25 1
7 04/17/2025 19:34:21 -79.74, 29.69 108.99 04/17/2025 19:35:06 -79.75, 29.61 108.99 1.75 45
8 04/17/2025 20:25:00 79.54,-161.28 70.67 04/17/2025 20:24:12 79.54,-161.23 70.68 1.04 48



Historial Predications of SNOs between NOAA-20 and PACE
